Location: Quedlinburg
(51.7921°N, 11.1414°E)
Time: 13:14:38
(UTC+02:00)

RS-15 - Pass Details

Date: 18 March 2026
Orbit: 1893 x 2152 km, 64.8° (Epoch: 22 April)

Event Time Altitude Azimuth Distance (km) Brightness Sun altitude
Rises 23:17:44 0° 269° (W) 5,288 10.5 -37.0°
Reaches altitude 10° 23:21:14 10° 276° (W) 4,307 10.0 -37.2°
Maximum altitude 23:31:43 45° 347° (NNW) 2,507 8.8 -37.7°
Drops below altitude 10° 23:42:39 10° 59° (ENE) 4,486 10.1 -38.2°
Sets 23:46:24 0° 66° (ENE) 5,523 10.5 -38.3°
